Time,TemperatureF,DewpointF,PressureIn,WindDirection,WindDirectionDegrees,WindSpeedMPH,WindSpeedGustMPH,Humidity,HourlyPrecipIn,Conditions,Clouds,dailyrainin,SoftwareType,DateUTC
2013-09-23 00:17:00,52.0,46.0,29.34,WNW,292,11.0,23.0,80,0.00,,,-99.99,Weather View 32 v70,2013-09-23 04:17:00,
2013-09-23 00:22:00,52.0,46.7,29.34,West,270,7.0,23.0,82,0.00,,,-99.99,Weather View 32 v70,2013-09-23 04:22:00,
2013-09-23 00:32:00,52.0,47.0,29.35,NW,315,7.0,23.0,83,0.00,,,-99.99,Weather View 32 v70,2013-09-23 04:32:00,
2013-09-23 00:42:00,52.0,47.0,29.35,NNW,337,6.0,23.0,83,0.00,,,-99.99,Weather View 32 v70,2013-09-23 04:42:00,
2013-09-23 00:45:00,52.0,47.0,29.35,NNW,337,6.0,23.0,83,0.00,,,-99.99,Weather View 32 v70,2013-09-23 04:45:00,
2013-09-23 00:52:00,52.0,47.0,29.35,West,270,4.0,23.0,83,0.00,,,-99.99,Weather View 32 v70,2013-09-23 04:52:00,
2013-09-23 00:57:00,51.0,46.3,29.35,WNW,292,2.0,23.0,84,0.00,,,-99.99,Weather View 32 v70,2013-09-23 04:57:00,
2013-09-23 01:22:00,51.0,46.6,29.35,NW,315,6.0,17.0,85,0.00,,,-99.99,Weather View 32 v70,2013-09-23 05:22:00,
2013-09-23 01:32:00,51.0,46.6,29.35,NW,315,12.0,17.0,85,0.00,,,-99.99,Weather View 32 v70,2013-09-23 05:32:00,
2013-09-23 01:37:00,51.0,46.6,29.35,NW,315,10.0,16.0,85,0.00,,,-99.99,Weather View 32 v70,2013-09-23 05:37:00,
2013-09-23 01:45:00,51.0,46.6,29.35,WSW,247,6.0,18.0,85,0.00,,,-99.99,Weather View 32 v70,2013-09-23 05:45:00,
2013-09-23 01:52:00,51.0,47.0,29.34,WNW,292,10.0,23.0,86,0.00,,,-99.99,Weather View 32 v70,2013-09-23 05:52:00,
2013-09-23 03:22:00,48.0,45.5,29.34,WNW,292,12.0,19.0,91,0.00,,,-99.99,Weather View 32 v70,2013-09-23 07:22:00,
2013-09-23 03:27:00,48.0,45.5,29.34,NW,315,11.0,19.0,91,0.00,,,-99.99,Weather View 32 v70,2013-09-23 07:27:00,
2013-09-23 03:32:00,48.0,45.2,29.34,West,270,12.0,19.0,90,0.00,,,-99.99,Weather View 32 v70,2013-09-23 07:32:00,
2013-09-23 03:42:00,48.0,45.5,29.34,West,270,13.0,20.0,91,0.00,,,-99.99,Weather View 32 v70,2013-09-23 07:42:00,
2013-09-23 03:47:00,48.0,45.2,29.34,WNW,292,6.0,20.0,90,0.00,,,-99.99,Weather View 32 v70,2013-09-23 07:47:00,
2013-09-23 03:52:00,48.0,45.2,29.35,West,270,11.0,22.0,90,0.00,,,-99.99,Weather View 32 v70,2013-09-23 07:52:00,
2013-09-23 03:57:00,48.0,45.2,29.34,WNW,292,10.0,25.0,90,0.00,,,-99.99,Weather View 32 v70,2013-09-23 07:57:00,
2013-09-23 04:07:00,47.0,44.2,29.35,WNW,292,15.0,25.0,90,0.00,,,-99.99,Weather View 32 v70,2013-09-23 08:07:00,
2013-09-23 04:12:00,47.0,44.2,29.35,NW,315,12.0,25.0,90,0.00,,,-99.99,Weather View 32 v70,2013-09-23 08:12:00,
2013-09-23 04:17:00,48.0,45.5,29.35,WNW,292,8.0,25.0,91,0.00,,,-99.99,Weather View 32 v70,2013-09-23 08:17:00,
2013-09-23 04:32:00,47.0,44.8,29.35,NW,315,9.0,25.0,92,0.00,,,-99.99,Weather View 32 v70,2013-09-23 08:32:00,
2013-09-23 04:37:00,47.0,44.5,29.35,WSW,247,8.0,25.0,91,0.00,,,-99.99,Weather View 32 v70,2013-09-23 08:37:00,
2013-09-23 04:42:00,47.0,44.5,29.35,WNW,292,17.0,25.0,91,0.00,,,-99.99,Weather View 32 v70,2013-09-23 08:42:00,
2013-09-23 04:47:00,47.0,44.5,29.35,NNW,337,6.0,25.0,91,0.00,,,-99.99,Weather View 32 v70,2013-09-23 08:47:00,
2013-09-23 04:52:00,47.0,44.5,29.35,West,270,11.0,25.0,91,0.00,,,-99.99,Weather View 32 v70,2013-09-23 08:52:00,
2013-09-23 04:57:00,47.0,44.8,29.36,NW,315,9.0,25.0,92,0.00,,,-99.99,Weather View 32 v70,2013-09-23 08:57:00,
2013-09-23 05:07:00,46.0,43.8,29.36,WNW,292,9.0,25.0,92,0.00,,,-99.99,Weather View 32 v70,2013-09-23 09:07:00,
2013-09-23 05:12:00,47.0,44.8,29.36,NW,315,8.0,25.0,92,0.00,,,-99.99,Weather View 32 v70,2013-09-23 09:12:00,
2013-09-23 05:17:00,47.0,44.8,29.37,NNW,337,7.0,25.0,92,0.00,,,-99.99,Weather View 32 v70,2013-09-23 09:17:00,
2013-09-23 05:22:00,46.0,43.8,29.37,NW,315,6.0,25.0,92,0.00,,,-99.99,Weather View 32 v70,2013-09-23 09:22:00,
2013-09-23 05:32:00,47.0,44.8,29.37,West,270,16.0,25.0,92,0.00,,,-99.99,Weather View 32 v70,2013-09-23 09:32:00,
2013-09-23 05:37:00,47.0,44.5,29.37,West,270,16.0,25.0,91,0.00,,,-99.99,Weather View 32 v70,2013-09-23 09:37:00,
2013-09-23 05:42:00,47.0,44.8,29.37,NW,315,17.0,25.0,92,0.00,,,-99.99,Weather View 32 v70,2013-09-23 09:42:00,
2013-09-23 05:47:00,47.0,44.5,29.37,WNW,292,12.0,25.0,91,0.00,,,-99.99,Weather View 32 v70,2013-09-23 09:47:00,
2013-09-23 05:57:00,47.0,44.8,29.38,NW,315,16.0,22.0,92,0.00,,,-99.99,Weather View 32 v70,2013-09-23 09:57:00,
2013-09-23 06:02:00,47.0,44.8,29.38,NW,315,10.0,22.0,92,0.00,,,-99.99,Weather View 32 v70,2013-09-23 10:02:00,
2013-09-23 06:07:00,46.0,43.5,29.38,West,270,10.0,22.0,91,0.00,,,-99.99,Weather View 32 v70,2013-09-23 10:07:00,
2013-09-23 06:12:00,46.0,43.5,29.37,WNW,292,6.0,22.0,91,0.00,,,-99.99,Weather View 32 v70,2013-09-23 10:12:00,
2013-09-23 06:17:00,46.0,43.5,29.38,NW,315,10.0,22.0,91,0.00,,,-99.99,Weather View 32 v70,2013-09-23 10:17:00,
2013-09-23 06:27:00,46.0,43.5,29.38,West,270,12.0,25.0,91,0.00,,,-99.99,Weather View 32 v70,2013-09-23 10:27:00,
2013-09-23 06:32:00,46.0,43.5,29.38,NW,315,7.0,25.0,91,0.00,,,-99.99,Weather View 32 v70,2013-09-23 10:32:00,
2013-09-23 06:37:00,46.0,43.5,29.38,NW,315,12.0,25.0,91,0.00,,,-99.99,Weather View 32 v70,2013-09-23 10:37:00,
2013-09-23 06:42:00,46.0,43.8,29.39,WNW,292,4.0,25.0,92,0.00,,,-99.99,Weather View 32 v70,2013-09-23 10:42:00,
2013-09-23 08:07:00,47.0,44.2,29.40,NW,315,13.0,17.0,90,0.00,,,-99.99,Weather View 32 v70,2013-09-23 12:07:00,
2013-09-23 08:17:00,47.0,44.5,29.41,WSW,247,1.0,17.0,91,0.00,,,-99.99,Weather View 32 v70,2013-09-23 12:17:00,
2013-09-23 08:22:00,47.0,44.5,29.41,NNW,337,0.0,21.0,91,0.00,,,-99.99,Weather View 32 v70,2013-09-23 12:22:00,
2013-09-23 09:17:00,48.0,45.2,29.44,NNW,337,7.0,21.0,90,0.00,,,-99.99,Weather View 32 v70,2013-09-23 13:17:00,
2013-09-23 09:27:00,49.0,46.2,29.44,West,270,3.0,22.0,90,0.00,,,-99.99,Weather View 32 v70,2013-09-23 13:27:00,
2013-09-23 10:32:00,49.0,45.6,29.43,NW,315,13.0,19.0,88,0.00,,,-99.99,Weather View 32 v70,2013-09-23 14:32:00,
2013-09-23 10:42:00,51.0,46.6,29.44,West,270,10.0,24.0,85,0.00,,,-99.99,Weather View 32 v70,2013-09-23 14:42:00,
2013-09-23 10:47:00,52.0,47.3,29.45,WNW,292,6.0,24.0,84,0.00,,,-99.99,Weather View 32 v70,2013-09-23 14:47:00,
2013-09-23 10:52:00,52.0,47.6,29.46,West,270,10.0,24.0,85,0.00,,,-99.99,Weather View 32 v70,2013-09-23 14:52:00,
2013-09-23 10:57:00,52.0,47.6,29.46,North,360,4.0,24.0,85,0.00,,,-99.99,Weather View 32 v70,2013-09-23 14:57:00,
2013-09-23 11:02:00,52.0,47.3,29.46,West,270,7.0,24.0,84,0.00,,,-99.99,Weather View 32 v70,2013-09-23 15:02:00,
2013-09-23 11:12:00,51.0,47.6,29.46,West,270,13.0,24.0,88,0.00,,,-99.99,Weather View 32 v70,2013-09-23 15:12:00,
2013-09-23 11:17:00,50.0,46.9,29.47,NW,315,7.0,24.0,89,0.00,,,-99.99,Weather View 32 v70,2013-09-23 15:17:00,
2013-09-23 11:22:00,51.0,48.2,29.47,NNW,337,7.0,24.0,90,0.00,,,-99.99,Weather View 32 v70,2013-09-23 15:22:00,
2013-09-23 11:27:00,51.0,47.9,29.47,NW,315,7.0,24.0,89,0.00,,,-99.99,Weather View 32 v70,2013-09-23 15:27:00,
2013-09-23 11:37:00,51.0,48.2,29.47,North,360,7.0,24.0,90,0.00,,,-99.99,Weather View 32 v70,2013-09-23 15:37:00,
2013-09-23 11:42:00,50.0,47.2,29.47,WNW,292,6.0,22.0,90,0.00,,,-99.99,Weather View 32 v70,2013-09-23 15:42:00,
2013-09-23 11:47:00,51.0,48.2,29.47,NW,315,4.0,22.0,90,0.00,,,-99.99,Weather View 32 v70,2013-09-23 15:47:00,
2013-09-23 11:52:00,50.0,47.2,29.47,NW,315,10.0,22.0,90,0.00,,,-99.99,Weather View 32 v70,2013-09-23 15:52:00,
2013-09-23 12:02:00,51.0,48.8,29.47,NW,315,7.0,22.0,92,0.00,,,-99.99,Weather View 32 v70,2013-09-23 16:02:00,
2013-09-23 12:07:00,51.0,47.9,29.47,NW,315,3.0,22.0,89,0.00,,,-99.99,Weather View 32 v70,2013-09-23 16:07:00,
2013-09-23 12:12:00,51.0,47.6,29.47,NNW,337,10.0,22.0,88,0.00,,,-99.99,Weather View 32 v70,2013-09-23 16:12:00,
2013-09-23 12:17:00,51.0,48.2,29.47,WNW,292,13.0,21.0,90,0.00,,,-99.99,Weather View 32 v70,2013-09-23 16:17:00,
2013-09-23 12:22:00,51.0,47.9,29.47,WNW,292,14.0,22.0,89,0.00,,,-99.99,Weather View 32 v70,2013-09-23 16:22:00,
2013-09-23 12:32:00,51.0,48.2,29.47,NNW,337,8.0,22.0,90,0.00,,,-99.99,Weather View 32 v70,2013-09-23 16:32:00,
2013-09-23 12:37:00,51.0,47.9,29.47,NNE,22,13.0,22.0,89,0.00,,,-99.99,Weather View 32 v70,2013-09-23 16:37:00,
2013-09-23 12:42:00,51.0,47.9,29.47,NW,315,10.0,22.0,89,0.00,,,-99.99,Weather View 32 v70,2013-09-23 16:42:00,
2013-09-23 12:47:00,52.0,48.5,29.47,North,360,15.0,22.0,88,0.00,,,-99.99,Weather View 32 v70,2013-09-23 16:47:00,
2013-09-23 12:52:00,51.0,47.9,29.47,North,360,10.0,22.0,89,0.00,,,-99.99,Weather View 32 v70,2013-09-23 16:52:00,
2013-09-23 13:02:00,51.0,48.2,29.46,NW,315,8.0,22.0,90,0.00,,,-99.99,Weather View 32 v70,2013-09-23 17:02:00,
2013-09-23 13:07:00,52.0,49.2,29.47,NW,315,8.0,22.0,90,0.00,,,-99.99,Weather View 32 v70,2013-09-23 17:07:00,
2013-09-23 13:12:00,52.0,48.9,29.47,WNW,292,15.0,22.0,89,0.00,,,-99.99,Weather View 32 v70,2013-09-23 17:12:00,
2013-09-23 13:17:00,52.0,48.9,29.46,WNW,292,16.0,25.0,89,0.00,,,-99.99,Weather View 32 v70,2013-09-23 17:17:00,
2013-09-23 13:22:00,52.0,48.5,29.46,NW,315,12.0,25.0,88,0.00,,,-99.99,Weather View 32 v70,2013-09-23 17:22:00,
2013-09-23 13:32:00,52.0,49.2,29.47,West,270,10.0,25.0,90,0.00,,,-99.99,Weather View 32 v70,2013-09-23 17:32:00,
2013-09-23 15:02:00,52.0,48.2,29.47,NW,315,7.0,12.0,87,0.00,,,-99.99,Weather View 32 v70,2013-09-23 19:02:00,
2013-09-23 15:07:00,52.0,48.5,29.47,West,270,11.0,15.0,88,0.00,,,-99.99,Weather View 32 v70,2013-09-23 19:07:00,
2013-09-23 15:17:00,52.0,48.5,29.46,WSW,247,12.0,19.0,88,0.00,,,-99.99,Weather View 32 v70,2013-09-23 19:17:00,
2013-09-23 15:22:00,51.0,47.9,29.47,WNW,292,9.0,22.0,89,0.00,,,-99.99,Weather View 32 v70,2013-09-23 19:22:00,
2013-09-23 15:27:00,51.0,48.2,29.47,NW,315,15.0,22.0,90,0.00,,,-99.99,Weather View 32 v70,2013-09-23 19:27:00,
2013-09-23 15:32:00,51.0,48.2,29.47,WNW,292,16.0,23.0,90,0.00,,,-99.99,Weather View 32 v70,2013-09-23 19:32:00,
2013-09-23 15:37:00,51.0,48.2,29.47,NW,315,14.0,23.0,90,0.00,,,-99.99,Weather View 32 v70,2013-09-23 19:37:00,
2013-09-23 15:47:00,52.0,48.2,29.47,WNW,292,13.0,23.0,87,0.00,,,-99.99,Weather View 32 v70,2013-09-23 19:47:00,
2013-09-23 15:52:00,52.0,48.5,29.47,WNW,292,12.0,23.0,88,0.00,,,-99.99,Weather View 32 v70,2013-09-23 19:52:00,
2013-09-23 15:57:00,52.0,48.5,29.47,WNW,292,9.0,23.0,88,0.00,,,-99.99,Weather View 32 v70,2013-09-23 19:57:00,
2013-09-23 16:02:00,51.0,47.6,29.47,NW,315,10.0,23.0,88,0.00,,,-99.99,Weather View 32 v70,2013-09-23 20:02:00,
2013-09-23 16:07:00,51.0,47.9,29.47,West,270,9.0,23.0,89,0.00,,,-99.99,Weather View 32 v70,2013-09-23 20:07:00,
2013-09-23 16:17:00,51.0,48.5,29.47,West,270,17.0,23.0,91,0.00,,,-99.99,Weather View 32 v70,2013-09-23 20:17:00,
2013-09-23 16:22:00,51.0,48.5,29.47,WNW,292,15.0,27.0,91,0.00,,,-99.99,Weather View 32 v70,2013-09-23 20:22:00,
2013-09-23 16:27:00,51.0,48.8,29.47,West,270,12.0,27.0,92,0.00,,,-99.99,Weather View 32 v70,2013-09-23 20:27:00,
2013-09-23 17:22:00,50.0,47.5,29.48,NNW,337,17.0,21.0,91,0.00,,,-99.99,Weather View 32 v70,2013-09-23 21:22:00,
2013-09-23 17:27:00,50.0,47.5,29.48,NW,315,10.0,22.0,91,0.00,,,-99.99,Weather View 32 v70,2013-09-23 21:27:00,
2013-09-23 17:37:00,50.0,47.8,29.49,WNW,292,13.0,22.0,92,0.00,,,-99.99,Weather View 32 v70,2013-09-23 21:37:00,
2013-09-23 17:42:00,50.0,47.8,29.48,WNW,292,9.0,22.0,92,0.00,,,-99.99,Weather View 32 v70,2013-09-23 21:42:00,
2013-09-23 17:52:00,50.0,48.1,29.49,West,270,8.0,22.0,93,0.00,,,-99.99,Weather View 32 v70,2013-09-23 21:52:00,
2013-09-23 17:57:00,50.0,47.8,29.49,NW,315,7.0,22.0,92,0.00,,,-99.99,Weather View 32 v70,2013-09-23 21:57:00,
2013-09-23 18:02:00,50.0,48.1,29.49,West,270,6.0,22.0,93,0.00,,,-99.99,Weather View 32 v70,2013-09-23 22:02:00,
2013-09-23 18:07:00,50.0,48.1,29.49,NW,315,9.0,22.0,93,0.00,,,-99.99,Weather View 32 v70,2013-09-23 22:07:00,
2013-09-23 18:12:00,50.0,47.8,29.49,SW,225,3.0,22.0,92,0.00,,,-99.99,Weather View 32 v70,2013-09-23 22:12:00,
2013-09-23 18:22:00,50.0,47.8,29.49,WNW,292,11.0,22.0,92,0.00,,,-99.99,Weather View 32 v70,2013-09-23 22:22:00,
2013-09-23 18:27:00,50.0,47.8,29.49,West,270,11.0,20.0,92,0.00,,,-99.99,Weather View 32 v70,2013-09-23 22:27:00,
2013-09-23 18:32:00,50.0,47.5,29.48,WNW,292,7.0,20.0,91,0.00,,,-99.99,Weather View 32 v70,2013-09-23 22:32:00,
2013-09-23 18:42:00,50.0,47.8,29.48,WNW,292,10.0,20.0,92,0.00,,,-99.99,Weather View 32 v70,2013-09-23 22:42:00,
2013-09-23 18:47:00,50.0,47.5,29.48,WNW,292,12.0,20.0,91,0.00,,,-99.99,Weather View 32 v70,2013-09-23 22:47:00,
2013-09-23 18:57:00,50.0,48.1,29.49,NW,315,10.0,20.0,93,0.00,,,-99.99,Weather View 32 v70,2013-09-23 22:57:00,
2013-09-23 19:02:00,50.0,48.1,29.48,West,270,9.0,20.0,93,0.00,,,-99.99,Weather View 32 v70,2013-09-23 23:02:00,
2013-09-23 19:12:00,49.0,47.1,29.48,West,270,9.0,20.0,93,0.00,,,-99.99,Weather View 32 v70,2013-09-23 23:12:00,
2013-09-23 19:17:00,49.0,47.3,29.48,NNW,337,8.0,20.0,94,0.00,,,-99.99,Weather View 32 v70,2013-09-23 23:17:00,
2013-09-23 19:22:00,49.0,47.3,29.48,WSW,247,3.0,20.0,94,0.00,,,-99.99,Weather View 32 v70,2013-09-23 23:22:00,
2013-09-23 19:27:00,49.0,47.3,29.48,NNW,337,6.0,20.0,94,0.00,,,-99.99,Weather View 32 v70,2013-09-23 23:27:00,
2013-09-23 19:37:00,49.0,47.3,29.48,WNW,292,14.0,20.0,94,0.00,,,-99.99,Weather View 32 v70,2013-09-23 23:37:00,
2013-09-23 19:42:00,49.0,47.3,29.48,NW,315,2.0,20.0,94,0.00,,,-99.99,Weather View 32 v70,2013-09-23 23:42:00,
2013-09-23 19:47:00,49.0,47.6,29.48,NW,315,15.0,21.0,95,0.00,,,-99.99,Weather View 32 v70,2013-09-23 23:47:00,
2013-09-23 19:55:00,49.0,47.3,29.47,North,360,12.0,21.0,94,0.00,,,-99.99,Weather View 32 v70,2013-09-23 23:55:00,
2013-09-23 20:02:00,49.0,47.3,29.47,NW,315,10.0,25.0,94,0.00,,,-99.99,Weather View 32 v70,2013-09-24 00:02:00,
2013-09-23 20:07:00,49.0,46.8,29.47,NW,315,15.0,25.0,92,0.00,,,-99.99,Weather View 32 v70,2013-09-24 00:07:00,
2013-09-23 20:12:00,49.0,47.1,29.48,NW,315,9.0,25.0,93,0.00,,,-99.99,Weather View 32 v70,2013-09-24 00:12:00,
2013-09-23 20:17:00,49.0,47.1,29.48,WNW,292,5.0,25.0,93,0.00,,,-99.99,Weather View 32 v70,2013-09-24 00:17:00,
2013-09-23 20:32:00,49.0,46.8,29.48,West,270,6.0,25.0,92,0.00,,,-99.99,Weather View 32 v70,2013-09-24 00:32:00,
2013-09-23 20:37:00,49.0,47.3,29.48,NW,315,6.0,25.0,94,0.00,,,-99.99,Weather View 32 v70,2013-09-24 00:37:00,
2013-09-23 20:42:00,49.0,46.8,29.48,NW,315,9.0,25.0,92,0.00,,,-99.99,Weather View 32 v70,2013-09-24 00:42:00,
2013-09-23 20:52:00,50.0,48.1,29.49,NW,315,6.0,25.0,93,0.00,,,-99.99,Weather View 32 v70,2013-09-24 00:52:00,
2013-09-23 21:02:00,50.0,47.8,29.48,WNW,292,3.0,19.0,92,0.00,,,-99.99,Weather View 32 v70,2013-09-24 01:02:00,
2013-09-23 23:42:00,49.0,46.8,29.49,NW,315,8.0,22.0,92,0.00,,,-99.99,Weather View 32 v70,2013-09-24 03:42:00,
2013-09-23 23:47:00,49.0,46.8,29.48,NW,315,9.0,22.0,92,0.00,,,-99.99,Weather View 32 v70,2013-09-24 03:47:00,
2013-09-23 23:52:00,49.0,46.8,29.49,NW,315,9.0,22.0,92,0.00,,,-99.99,Weather View 32 v70,2013-09-24 03:52:00,
2013-09-23 23:57:00,49.0,47.1,29.49,WNW,292,6.0,22.0,93,0.00,,,-99.99,Weather View 32 v70,2013-09-24 03:57:00,